Location: Prostejov
(49.4670°N, 17.1170°E)
Time: 03:36:57
(UTC+02:00)

ISS - Visible Passes

Search period start: 21 May 2024 00:00
Search period end: 31 May 2024 00:00
Orbit: 409 x 414 km, 51.6° (Epoch: 20 May)

Date Brightness Start Highest point End Pass type
(mag) Time Alt. Az. Time Alt. Az. Time Alt. Az.
21 May -3.8 22:35:23 10° WNW 22:38:41 62° SSW 22:40:02 31° SE visible
22 May -3.8 21:45:22 10° WNW 21:48:42 86° SSW 21:51:45 12° ESE visible
22 May -2.1 23:22:24 10° W 23:24:32 21° SW 23:24:32 21° SW visible
23 May -2.8 22:32:05 10° W 22:35:07 32° SSW 22:36:13 25° S visible
24 May -3.3 21:41:52 10° WNW 21:45:06 49° SSW 21:47:53 13° SE visible
24 May -1.2 23:20:33 10° SW 23:20:39 10° SW 23:20:39 10° SW visible
25 May -1.7 22:28:59 10° W 22:31:10 16° SW 22:32:19 14° SSW visible
26 May -2.2 21:38:21 10° W 21:41:09 25° SW 21:43:56 10° SSE visible
28 May -1.3 21:35:20 10° WSW 21:36:49 13° SW 21:38:20 10° SSW visible
